GW6861 Weather Reports


Display with metric or nautical units.
time (UTC)temp
F
wind
direction
speed
MPH
gust
MPH
rain 1hr
in
rain 24hr
in
rain mn
in
humidity
%
barometer
mb
20260510220003 68 352 1.0 6.0 0.00 0.02 0.01 49 1010.5
20260510215503 68 350 1.0 7.0 0.00 0.02 0.01 47 1010.4
20260510215003 68 6 1.0 7.0 0.00 0.02 0.01 49 1010.3
20260510214503 69 125 0.0 5.0 0.00 0.03 0.01 45 1010.3
20260510214003 69 39 0.0 2.0 0.00 0.03 0.01 50 1010.2
20260510213503 70 142 0.0 2.0 0.00 0.04 0.01 48 1010.2
20260510213003 69 12 0.0 7.0 0.00 0.05 0.01 49 1010.2
20260510212714 69 11 0.0 7.0 0.00 0.05 0.01 50 1010.2
20260510212003 69 355 1.0 7.0 0.00 0.06 0.01 55 1010.2
20260510211503 69 357 1.0 11.0 0.00 0.07 0.01 53 1010.2
20260510211003 69 7 1.0 11.0 0.00 0.08 0.01 53 1010.1
20260510210503 70 53 1.0 7.0 0.00 0.09 0.01 48 1010.3
20260510210005 69 157 1.0 11.0 0.00 0.10 0.01 49 1010.1
20260510205503 68 132 2.0 11.0 0.00 0.11 0.01 52 1010.1
20260510205003 69 137 0.0 7.0 0.00 0.12 0.01 54 1010.0
20260510204505 70 7 0.0 5.0 0.00 0.12 0.01 53 1010.0
20260510204003 70 339 1.0 5.0 0.00 0.13 0.01 52 1010.0
20260510203503 69 262 0.0 4.0 0.00 0.14 0.01 51 1010.1
20260510203215 70 245 1.0 7.0 0.00 0.14 0.01 52 1010.1
20260510202713 70 222 1.0 10.0 0.00 0.14 0.01 54 1010.1
20260510202003 70 334 0.0 8.0 0.00 0.16 0.01 49 1010.1
20260510201503 70 89 1.0 6.0 0.00 0.16 0.01 52 1010.1
20260510201003 70 45 1.0 6.0 0.00 0.17 0.01 48 1010.0
20260510200503 70 7 0.0 4.0 0.00 0.17 0.01 49 1010.1
20260510200003 69 22 0.0 4.0 0.00 0.18 0.01 56 1010.0
20260510195503 68 316 1.0 5.0 0.00 0.19 0.01 54 1010.1
20260510195003 69 319 1.0 5.0 0.00 0.20 0.01 53 1010.2
20260510194505 69 14 1.0 8.0 0.00 0.20 0.01 56 1010.2
20260510194003 68 149 2.0 9.0 0.00 0.21 0.01 57 1010.2
20260510193503 68 177 2.0 9.0 0.00 0.23 0.01 53 1010.0
20260510193003 69 238 0.0 5.0 0.00 0.24 0.01 56 1010.0
20260510192713 68 160 0.0 2.0 0.00 0.24 0.01 58 1010.2
20260510192003 68 154 0.0 2.0 0.00 0.25 0.01 60 1010.3
20260510191504 68 177 0.0 2.0 0.00 0.26 0.01 60 1010.2
20260510191003 67 347 0.0 3.0 0.00 0.26 0.01 61 1010.3
20260510190503 68 261 0.0 4.0 0.00 0.27 0.01 57 1010.2
20260510190003 69 208 1.0 5.0 0.00 0.28 0.01 59 1010.2
20260510185503 68 271 1.0 7.0 0.00 0.28 0.01 59 1010.1
20260510185003 69 339 1.0 7.0 0.00 0.29 0.01 57 1010.2
20260510184713 68 353 1.0 6.0 0.00 0.30 0.01 59 1010.1
20260510184003 68 353 2.0 8.0 0.00 0.31 0.01 59 1010.3
20260510183503 67 1 1.0 7.0 0.00 0.31 0.01 60 1010.4
20260510183003 65 32 1.0 7.0 0.00 0.32 0.01 63 1010.4
20260510182503 65 350 3.0 15.0 0.00 0.33 0.01 61 1010.4
20260510182003 68 351 2.0 15.0 0.00 0.34 0.01 56 1010.4
20260510181503 69 170 1.0 6.0 0.00 0.34 0.01 56 1010.2
20260510181003 69 188 1.0 8.0 0.00 0.35 0.01 56 1010.3
20260510180713 70 190 1.0 8.0 0.00 0.35 0.01 52 1010.2
20260510180214 70 256 0.0 3.0 0.00 0.36 0.01 58 1010.2
20260510175503 69 161 0.0 5.0 0.00 0.37 0.01 64 1010.2
20260510175003 69 151 0.0 5.0 0.00 0.38 0.01 53 1010.1
20260510174714 68 227 0.0 1.0 0.00 0.38 0.01 64 1010.1
20260510174003 67 199 0.0 3.0 0.00 0.40 0.01 58 1010.2
20260510173503 68 297 0.0 2.0 0.00 0.40 0.01 58 1010.1
20260510173003 68 297 0.0 2.0 0.00 0.41 0.01 56 1010.1
20260510172503 66 0 0.0 0.0 0.00 0.42 0.01 64 1010.2
20260510172003 66 0 0.0 0.0 0.00 0.43 0.01 61 1010.3
20260510171504 66 129 0.0 1.0 0.00 0.44 0.01 62 1010.3
20260510171003 67 203 1.0 6.0 0.00 0.45 0.01 61 1010.3
20260510170503 66 206 1.0 10.0 0.00 0.46 0.01 64 1010.4
20260510170215 66 211 1.0 10.0 0.00 0.47 0.01 63 1010.4
20260510165503 66 226 0.0 5.0 0.00 0.48 0.01 64 1010.6
20260510165003 65 216 0.0 4.0 0.00 0.49 0.01 65 1010.6
20260510164503 65 128 0.0 4.0 0.00 0.50 0.01 65 1010.5
20260510164213 65 128 0.0 4.0 0.00 0.50 0.01 65 1010.5
20260510163503 65 340 0.0 5.0 0.00 0.51 0.01 67 1010.5
20260510163003 66 325 0.0 3.0 0.00 0.51 0.01 64 1010.6
20260510162503 66 0 0.0 0.0 0.00 0.51 0.01 67 1010.7
20260510162003 65 0 0.0 0.0 0.00 0.52 0.01 70 1010.7
20260510161505 64 292 0.0 2.0 0.00 0.53 0.01 67 1010.9
20260510161003 65 275 0.0 2.0 0.00 0.53 0.01 67 1011.0
20260510160503 66 222 0.0 4.0 0.00 0.54 0.01 72 1010.9
20260510160003 65 226 0.0 6.0 0.00 0.54 0.01 70 1010.9
20260510155503 64 233 1.0 9.0 0.00 0.54 0.01 73 1010.9
20260510155003 63 228 0.0 9.0 0.00 0.55 0.01 72 1011.0
20260510154503 63 213 0.0 2.0 0.00 0.55 0.01 71 1011.1
20260510154003 62 225 0.0 2.0 0.00 0.56 0.01 72 1011.2
20260510153503 62 225 0.0 2.0 0.00 0.56 0.01 75 1011.1
20260510153003 63 220 0.0 6.0 0.00 0.56 0.01 73 1011.1
20260510152503 62 220 0.0 6.0 0.00 0.57 0.01 74 1011.1
20260510152003 62 222 0.0 5.0 0.00 0.57 0.01 77 1011.2
20260510151503 61 222 0.0 5.0 0.00 0.58 0.01 74 1011.1
20260510151003 61 219 0.0 5.0 0.00 0.58 0.01 81 1011.1
20260510150504 61 215 0.0 5.0 0.00 0.59 0.01 76 1011.2
20260510150003 60 44 0.0 2.0 0.00 0.59 0.01 78 1011.2
20260510145503 60 231 0.0 5.0 0.00 0.60 0.01 80 1011.2
20260510145005 60 228 0.0 5.0 0.00 0.60 0.01 81 1011.3
20260510144503 59 0 0.0 0.0 0.00 0.61 0.01 79 1011.3
20260510144003 59 267 0.0 2.0 0.00 0.61 0.01 79 1011.2
20260510143503 59 129 0.0 2.0 0.00 0.61 0.01 85 1011.2
20260510143004 59 119 0.0 2.0 0.00 0.62 0.01 85 1011.4
20260510142503 59 220 0.0 4.0 0.00 0.62 0.01 85 1011.4
20260510142003 59 217 0.0 4.0 0.00 0.63 0.01 85 1011.5
20260510141505 58 198 0.0 4.0 0.00 0.63 0.01 86 1011.5
20260510141003 57 198 0.0 4.0 0.00 0.63 0.01 85 1011.6
20260510140503 56 0 0.0 0.0 0.00 0.64 0.01 87 1011.6
20260510140003 56 0 0.0 0.0 0.00 0.64 0.01 88 1011.6
20260510135503 56 0 0.0 0.0 0.00 0.64 0.01 90 1011.6
20260510135003 56 0 0.0 0.0 0.00 0.64 0.01 92 1011.6
20260510134503 55 0 0.0 0.0 0.00 0.64 0.01 93 1011.5
20260510134003 55 0 0.0 0.0 0.00 0.64 0.01 94 1011.3
20260510133503 54 0 0.0 0.0 0.00 0.64 0.01 93 1011.3
20260510133003 54 0 0.0 0.0 0.00 0.64 0.01 94 1011.4
20260510132503 53 0 0.0 0.0 0.00 0.64 0.01 95 1011.3
20260510132003 53 0 0.0 0.0 0.00 0.64 0.01 96 1011.5
20260510131503 52 0 0.0 0.0 0.00 0.64 0.01 96 1011.6
20260510131003 52 0 0.0 0.0 0.00 0.64 0.01 96 1011.6
20260510130503 51 0 0.0 0.0 0.00 0.64 0.01 96 1011.5
20260510130214 51 0 0.0 0.0 0.00 0.64 0.01 96 1011.5
20260510125503 51 0 0.0 0.0 0.00 0.64 0.01 96 1011.6
20260510125003 51 0 0.0 0.0 0.00 0.64 0.01 96 1011.6
20260510124503 51 0 0.0 0.0 0.00 0.64 0.01 96 1011.6
20260510124003 50 0 0.0 0.0 0.00 0.64 0.01 96 1011.5
20260510123503 50 0 0.0 0.0 0.00 0.64 0.01 96 1011.5
20260510123003 49 0 0.0 0.0 0.00 0.64 0.01 96 1011.4
20260510122503 50 0 0.0 0.0 0.00 0.64 0.01 96 1011.4
20260510122003 49 0 0.0 0.0 0.00 0.64 0.01 96 1011.4
20260510121503 48 0 0.0 0.0 0.00 0.64 0.01 96 1011.4
20260510121003 48 0 0.0 0.0 0.00 0.64 0.01 96 1011.4
20260510120712 48 0 0.0 0.0 0.00 0.64 0.01 96 1011.6
20260510120003 47 0 0.0 0.0 0.00 0.64 0.01 95 1011.6
20260510115503 47 0 0.0 0.0 0.00 0.64 0.01 95 1011.7
20260510115003 47 0 0.0 0.0 0.00 0.64 0.01 95 1011.6
20260510114503 47 0 0.0 0.0 0.00 0.64 0.01 95 1011.5
20260510114003 47 0 0.0 0.0 0.00 0.64 0.01 95 1011.5
20260510113505 47 0 0.0 0.0 0.00 0.64 0.01 95 1011.4
20260510113003 47 0 0.0 0.0 0.00 0.64 0.01 95 1011.4
20260510112503 47 0 0.0 0.0 0.00 0.64 0.01 95 1011.4
20260510112003 47 0 0.0 0.0 0.00 0.64 0.01 95 1011.3
20260510111503 48 0 0.0 0.0 0.00 0.64 0.01 95 1011.1
20260510111003 47 0 0.0 0.0 0.00 0.64 0.01 96 1010.9
20260510110503 47 0 0.0 0.0 0.00 0.64 0.01 95 1010.9
20260510110003 47 0 0.0 0.0 0.00 0.64 0.01 95 1011.0
20260510105503 47 0 0.0 0.0 0.00 0.64 0.01 95 1010.9
20260510105003 47 0 0.0 0.0 0.00 0.64 0.01 95 1010.6
20260510104714 46 0 0.0 0.0 0.00 0.64 0.01 95 1010.7
20260510104003 46 0 0.0 0.0 0.00 0.64 0.01 95 1010.6
20260510103503 46 0 0.0 0.0 0.00 0.64 0.01 95 1010.5
20260510103004 46 0 0.0 0.0 0.00 0.64 0.01 95 1010.7
20260510102503 46 0 0.0 0.0 0.00 0.64 0.01 95 1010.6
20260510102003 46 0 0.0 0.0 0.00 0.64 0.01 95 1010.5
20260510101503 46 0 0.0 0.0 0.00 0.64 0.01 95 1010.6
20260510101003 45 0 0.0 0.0 0.00 0.64 0.01 95 1010.4
20260510100503 45 0 0.0 0.0 0.00 0.64 0.01 95 1010.1
20260510100003 45 0 0.0 0.0 0.00 0.64 0.01 95 1010.1
20260510095503 45 0 0.0 0.0 0.00 0.64 0.01 95 1010.0
20260510095003 45 0 0.0 0.0 0.00 0.64 0.01 95 1010.0
20260510094503 45 0 0.0 0.0 0.00 0.64 0.01 95 1010.2
20260510094003 45 0 0.0 0.0 0.00 0.64 0.01 95 1010.2
20260510093503 45 0 0.0 0.0 0.00 0.64 0.01 95 1010.3
20260510093003 45 0 0.0 0.0 0.00 0.64 0.01 95 1010.0
20260510092503 45 0 0.0 0.0 0.00 0.64 0.01 95 1010.0
20260510092003 45 0 0.0 0.0 0.00 0.64 0.01 95 1010.0
20260510091715 45 0 0.0 0.0 0.00 0.64 0.01 95 1010.2
20260510091003 45 0 0.0 0.0 0.00 0.64 0.01 95 1010.4
20260510090503 45 0 0.0 0.0 0.00 0.64 0.01 95 1010.4
20260510090003 45 0 0.0 0.0 0.00 0.64 0.01 95 1010.4
20260510085503 45 0 0.0 0.0 0.00 0.64 0.01 95 1010.3
20260510085003 45 0 0.0 0.0 0.00 0.64 0.01 95 1010.5
20260510084503 45 0 0.0 0.0 0.00 0.64 0.01 95 1010.5
20260510084003 45 0 0.0 0.0 0.01 0.64 0.01 95 1010.4
20260510083503 45 0 0.0 0.0 0.01 0.64 0.01 95 1010.3
20260510083003 45 0 0.0 0.0 0.01 0.64 0.01 95 1010.3
20260510082503 45 0 0.0 0.0 0.01 0.64 0.01 95 1010.4
20260510082214 45 0 0.0 0.0 0.01 0.64 0.01 95 1010.3
20260510081503 45 0 0.0 0.0 0.01 0.64 0.01 95 1010.4
20260510081003 45 0 0.0 0.0 0.01 0.64 0.01 95 1010.5
20260510080503 45 0 0.0 0.0 0.01 0.64 0.01 95 1010.4
20260510080214 45 0 0.0 0.0 0.01 0.64 0.01 95 1010.2
20260510075503 45 0 0.0 0.0 0.01 0.64 0.01 95 1010.2
20260510075003 45 0 0.0 0.0 0.01 0.64 0.01 95 1010.3
20260510074503 45 0 0.0 0.0 0.01 0.64 0.01 95 1010.3
20260510074003 45 0 0.0 0.0 0.00 0.63 0.00 95 1010.4
20260510073504 45 0 0.0 0.0 0.00 0.63 0.00 95 1010.4
20260510073003 45 0 0.0 0.0 0.00 0.63 0.00 95 1010.3
20260510072503 45 0 0.0 0.0 0.00 0.63 0.00 95 1010.2
20260510072003 45 0 0.0 0.0 0.00 0.63 0.00 95 1010.2
20260510071503 45 0 0.0 0.0 0.00 0.63 0.00 95 1010.4
20260510071003 45 0 0.0 0.0 0.00 0.63 0.00 95 1010.2
20260510070505 45 0 0.0 0.0 0.00 0.63 0.00 95 1010.4
20260510070214 45 0 0.0 0.0 0.00 0.63 0.00 95 1010.5
20260510065503 45 0 0.0 0.0 0.00 0.63 0.00 95 1010.6
20260510065003 45 0 0.0 0.0 0.00 0.63 0.00 95 1010.8
20260510064503 45 0 0.0 0.0 0.00 0.63 0.00 95 1010.7
20260510064003 45 0 0.0 0.0 0.00 0.63 0.00 95 1010.5
20260510063503 45 0 0.0 0.0 0.00 0.63 0.00 95 1010.3
20260510063005 45 0 0.0 0.0 0.00 0.63 0.00 95 1010.4
20260510062712 45 0 0.0 0.0 0.00 0.63 0.00 95 1010.5
20260510062003 45 0 0.0 0.0 0.00 0.63 0.00 95 1010.5
20260510061503 45 0 0.0 0.0 0.00 0.63 0.00 95 1010.5
20260510061003 45 0 0.0 0.0 0.00 0.63 0.00 95 1010.6
20260510060503 45 0 0.0 0.0 0.00 0.63 0.00 95 1010.6
20260510060003 45 0 0.0 0.0 0.00 0.63 0.00 95 1010.4
20260510055714 45 0 0.0 0.0 0.00 0.63 0.00 95 1010.5
20260510055003 45 0 0.0 0.0 0.00 0.63 0.00 95 1010.5
20260510054714 45 0 0.0 0.0 0.00 0.63 0.00 95 1010.5
20260510054003 45 0 0.0 0.0 0.00 0.63 0.00 95 1010.5
20260510053503 45 0 0.0 0.0 0.00 0.63 0.00 95 1010.7
20260510053005 45 0 0.0 0.0 0.00 0.63 0.00 95 1010.7
20260510052503 45 0 0.0 0.0 0.00 0.63 0.00 95 1010.6
20260510052003 45 0 0.0 0.0 0.00 0.63 0.00 95 1010.7
20260510051503 45 0 0.0 0.0 0.00 0.63 0.00 95 1010.7
20260510051004 45 0 0.0 0.0 0.00 0.63 0.00 95 1010.7
20260510050503 45 0 0.0 0.0 0.00 0.63 0.00 95 1010.9
20260510050003 45 0 0.0 0.0 0.00 0.63 0.00 95 1011.0
20260510045505 45 0 0.0 0.0 0.00 0.63 0.00 95 1010.9
20260510045213 45 0 0.0 0.0 0.00 0.63 0.00 95 1011.0
20260510044503 45 0 0.0 0.0 0.00 0.63 0.00 95 1010.9
20260510044003 45 0 0.0 0.0 0.00 0.63 0.00 95 1010.8
20260510043505 45 0 0.0 0.0 0.00 0.63 0.00 95 1010.8
20260510043003 45 0 0.0 0.0 0.00 0.63 0.00 95 1010.9
20260510042505 45 0 0.0 0.0 0.00 0.63 0.00 95 1010.9
20260510042003 45 0 0.0 0.0 0.00 0.63 0.00 95 1010.9
20260510041503 45 0 0.0 0.0 0.00 0.63 0.00 95 1010.9
20260510041003 45 0 0.0 0.0 0.00 0.63 0.00 95 1010.9
20260510040505 45 0 0.0 0.0 0.00 0.63 0.00 95 1010.8
20260510040003 45 0 0.0 0.0 0.00 0.63 0.00 94 1010.9
20260510035503 45 0 0.0 0.0 0.00 0.63 0.63 94 1010.8
20260510035005 45 0 0.0 0.0 0.00 0.63 0.63 94 1010.7
20260510034503 45 0 0.0 0.0 0.00 0.63 0.63 94 1010.8
20260510034003 45 0 0.0 0.0 0.00 0.63 0.63 94 1010.8
20260510033505 45 0 0.0 0.0 0.00 0.63 0.63 94 1010.9
20260510033003 45 0 0.0 0.0 0.00 0.63 0.63 94 1011.3
20260510032713 45 0 0.0 0.0 0.00 0.63 0.63 94 1011.5
20260510032214 45 0 0.0 0.0 0.00 0.63 0.63 94 1011.4
20260510031503 45 0 0.0 0.0 0.00 0.63 0.63 94 1011.4
20260510031003 45 0 0.0 0.0 0.00 0.63 0.63 94 1011.4
20260510030503 45 0 0.0 0.0 0.00 0.63 0.63 94 1011.6
20260510030003 45 0 0.0 0.0 0.00 0.63 0.63 94 1011.8
20260510025503 45 0 0.0 0.0 0.00 0.63 0.63 94 1011.8
20260510025003 45 0 0.0 0.0 0.00 0.63 0.63 94 1011.7
20260510024503 45 0 0.0 0.0 0.00 0.63 0.63 94 1011.7
20260510024003 45 0 0.0 0.0 0.00 0.63 0.63 94 1011.7
20260510023503 45 0 0.0 0.0 0.00 0.63 0.63 94 1011.7
20260510023003 45 0 0.0 0.0 0.00 0.63 0.63 94 1011.8
20260510022503 45 0 0.0 0.0 0.00 0.63 0.63 94 1011.8
20260510022003 45 0 0.0 0.0 0.00 0.63 0.63 94 1011.8
20260510021503 45 0 0.0 0.0 0.00 0.63 0.63 94 1011.8
20260510021214 45 0 0.0 0.0 0.00 0.63 0.63 94 1011.8
20260510020503 45 0 0.0 0.0 0.00 0.63 0.63 94 1011.8
20260510020003 45 0 0.0 0.0 0.00 0.63 0.63 94 1011.8
20260510015712 45 0 0.0 0.0 0.00 0.63 0.63 94 1011.8
20260510015003 45 0 0.0 0.0 0.00 0.63 0.63 94 1011.9
20260510014503 45 0 0.0 0.0 0.00 0.63 0.63 94 1012.1
20260510014003 45 0 0.0 0.0 0.00 0.63 0.63 94 1012.0
20260510013505 45 0 0.0 0.0 0.00 0.63 0.63 94 1012.1
20260510013003 45 0 0.0 0.0 0.00 0.63 0.63 94 1012.1
20260510012505 45 0 0.0 0.0 0.00 0.63 0.63 94 1012.1
20260510012003 45 0 0.0 0.0 0.00 0.63 0.63 94 1012.0
20260510011503 45 0 0.0 0.0 0.00 0.63 0.63 94 1012.0
20260510011213 45 0 0.0 0.0 0.00 0.63 0.63 94 1012.0
20260510010503 45 0 0.0 0.0 0.00 0.63 0.63 94 1011.9
20260510010005 45 0 0.0 0.0 0.00 0.63 0.63 94 1011.9
20260510005503 45 0 0.0 0.0 0.00 0.63 0.63 94 1011.8
20260510005003 45 0 0.0 0.0 0.00 0.63 0.63 94 1011.8
20260510004505 45 0 0.0 0.0 0.00 0.63 0.63 94 1011.8
20260510004213 45 0 0.0 0.0 0.00 0.63 0.63 94 1011.8
20260510003503 45 0 0.0 0.0 0.00 0.63 0.63 94 1011.7
20260510003005 45 0 0.0 0.0 0.00 0.63 0.63 94 1011.7
20260510002503 45 0 0.0 0.0 0.00 0.63 0.63 94 1011.6
20260510002003 45 0 0.0 0.0 0.00 0.63 0.63 93 1011.6
20260510001714 45 0 0.0 0.0 0.00 0.63 0.63 93 1011.6
20260510001003 45 0 0.0 0.0 0.00 0.63 0.63 93 1011.6
20260510000503 45 0 0.0 0.0 0.00 0.63 0.63 93 1011.6
20260510000003 45 0 0.0 0.0 0.00 0.63 0.63 93 1011.5
20260509235503 45 0 0.0 0.0 0.00 0.63 0.63 93 1011.4
20260509235003 45 0 0.0 0.0 0.00 0.63 0.63 93 1011.4
20260509234503 45 0 0.0 0.0 0.00 0.63 0.63 93 1011.5
20260509234003 45 0 0.0 0.0 0.00 0.63 0.63 93 1011.4
20260509233503 45 0 0.0 0.0 0.00 0.63 0.63 93 1011.4
20260509233213 45 0 0.0 0.0 0.00 0.63 0.63 93 1011.4
20260509232503 45 0 0.0 0.0 0.00 0.63 0.63 93 1011.5
20260509232003 45 0 0.0 0.0 0.00 0.63 0.63 93 1011.4
20260509231714 45 0 0.0 0.0 0.00 0.63 0.63 93 1011.3
20260509231003 45 0 0.0 0.0 0.00 0.63 0.63 93 1011.2
20260509230503 45 0 0.0 0.0 0.00 0.63 0.63 93 1011.3
20260509230003 45 0 0.0 0.0 0.01 0.63 0.63 93 1011.3
20260509225503 45 0 0.0 0.0 0.01 0.63 0.63 93 1011.2
20260509225005 45 0 0.0 0.0 0.01 0.63 0.63 93 1011.3
20260509224503 45 0 0.0 0.0 0.02 0.63 0.63 93 1011.3
20260509224005 45 0 0.0 0.0 0.02 0.63 0.63 93 1011.2
20260509223508 45 0 0.0 0.0 0.03 0.63 0.63 93 1011.1
20260509223003 45 0 0.0 0.0 0.04 0.63 0.63 93 1011.0
20260509222503 45 0 0.0 0.0 0.04 0.63 0.63 93 1011.1
20260509222214 45 0 0.0 0.0 0.05 0.63 0.63 93 1011.2
20260509221713 45 0 0.0 0.0 0.06 0.63 0.63 93 1011.3
20260509221003 45 0 0.0 0.0 0.07 0.63 0.63 93 1011.4
20260509220713 45 0 0.0 0.0 0.08 0.63 0.63 93 1011.2